Philip, SD

3:08 AM MDT on August 26, 2016 (GMT -0600)
Philip

Weather History for KPHP - October, 2011

Change the Weather History Date:

Saturday, October 8, 2011

  Actual Average Record
Temperature  
Mean Temperature 50 °F 52 °F  
Max Temperature 56 °F 67 °F 94 °F (1960)
Min Temperature 43 °F 37 °F 16 °F (2000)
Degree Days  
Heating Degree Days 15 13  
Month to date heating degree days 22 94  
Since 1 July heating degree days 141 280  
Cooling Degree Days 0 0  
Month to date cooling degree days 36 0  
Year to date cooling degree days 837 814  
Moisture  
Dew Point 44 °F    
Average Humidity 78    
Maximum Humidity 83    
Minimum Humidity 72    
Precipitation  
Precipitation 0.10 in 0.05 in 0.22 in (1993)
Month to date precipitation 0.14 0.42  
Year to date precipitation 15.22 15.29  
Sea Level Pressure  
Sea Level Pressure 30.07 in    
Wind  
Wind Speed 9 mph (North)    
Max Wind Speed 20 mph    
Max Gust Speed 26 mph    
Visibility 10 miles    
Events Rain    
T = Trace of Precipitation, MM = Missing Value Source: NWS Daily Summary

Daily Weather History Graph

Daily Weather History Graph

Search for Another Location

Airport or City:

Trip Planner

Search our weather history database for the weather conditions in past years. The results will help you decide how hot, cold, wet, or windy it might be!

Date:

Astronomy

Oct. 08, 2011 Rise Set
Actual Time 6:52 AM MDT 6:15 PM MDT
Civil Twilight 6:23 AM MDT 6:43 PM MDT
Nautical Twilight 5:49 AM MDT 7:17 PM MDT
Astronomical Twilight 5:16 AM MDT 7:50 PM MDT
Moon 4:30 PM MDT (10/8) 3:35 AM MDT (10/8)
Length of Visible Light 12h 20m
Length of Day
11h 22m
Waxing Gibbous, 90% of the Moon is Illuminated
Oct 8
Waxing Gibbous
Oct 11
Full
Oct 19
Last Quarter
Oct 26
New
Nov 2
First Quarter

Hourly Weather History & Observations

Time (MDT) Temp. Windchill Dew Point Humidity Pressure Visibility Wind Dir Wind Speed Gust Speed Precip Events Conditions
12:55 AM 45.0 °F 41.2 °F 39.0 °F 80% 29.88 in 10.0 mi West 6.9 mph - N/A   Clear
1:55 AM 44.1 °F 41.5 °F 37.9 °F 79% 29.91 in 10.0 mi West 4.6 mph - N/A   Clear
2:55 AM 43.0 °F 39.5 °F 37.9 °F 82% 29.94 in 10.0 mi West 5.8 mph - N/A   Clear
3:55 AM 45.0 °F 41.2 °F 39.9 °F 82% 29.94 in 10.0 mi WNW 6.9 mph - N/A   Mostly Cloudy
4:55 AM 45.0 °F - 39.9 °F 82% 29.95 in 10.0 mi Calm Calm - N/A   Clear
5:55 AM 50.0 °F - 45.0 °F 83% 29.97 in 10.0 mi WNW 3.5 mph - N/A   Overcast
6:55 AM 50.0 °F - 45.0 °F 83% 30.02 in 10.0 mi NW 6.9 mph - N/A   Overcast
7:55 AM 51.1 °F - 46.0 °F 83% 30.04 in 10.0 mi NNW 8.1 mph - N/A   Overcast
8:55 AM 53.1 °F - 46.0 °F 77% 30.06 in 10.0 mi NNW 10.4 mph - N/A   Mostly Cloudy
9:55 AM 55.0 °F - 46.0 °F 72% 30.07 in 10.0 mi North 13.8 mph - N/A   Mostly Cloudy
10:55 AM 54.0 °F - 46.9 °F 77% 30.09 in 10.0 mi North 11.5 mph 18.4 mph 0.00 in Rain Light Rain
11:55 AM 55.0 °F - 46.9 °F 74% 30.09 in 10.0 mi NNE 10.4 mph - 0.00 in   Overcast
12:55 PM 55.0 °F - 46.0 °F 72% 30.08 in 10.0 mi North 11.5 mph - N/A   Overcast
1:55 PM 54.0 °F - 46.0 °F 75% 30.06 in 10.0 mi NNE 16.1 mph - 0.00 in Rain Light Rain
2:55 PM 55.0 °F - 44.1 °F 67% 30.07 in 10.0 mi NNE 17.3 mph - 0.00 in   Overcast
3:55 PM 55.0 °F - 44.1 °F 67% 30.09 in 10.0 mi NNE 15.0 mph 21.9 mph 0.00 in Rain Light Rain
4:55 PM 52.0 °F - 45.0 °F 77% 30.12 in 10.0 mi NNE 11.5 mph - 0.02 in Rain Light Rain
5:55 PM 51.1 °F - 46.0 °F 83% 30.13 in 10.0 mi NE 4.6 mph - 0.00 in   Overcast
6:55 PM 50.0 °F - 45.0 °F 83% 30.15 in 10.0 mi North 6.9 mph - 0.00 in   Overcast
7:55 PM 51.1 °F - 45.0 °F 80% 30.16 in 10.0 mi NNE 5.8 mph - N/A   Overcast
8:55 PM 50.0 °F - 45.0 °F 83% 30.17 in 10.0 mi NNE 6.9 mph - 0.01 in   Overcast
9:55 PM 50.0 °F - 46.0 °F 86% 30.18 in 10.0 mi NNE 8.1 mph - 0.02 in Rain Light Rain
10:55 PM 50.0 °F - 46.0 °F 86% 30.18 in 10.0 mi North 10.4 mph - 0.00 in   Overcast
11:48 PM 48.2 °F - 46.4 °F 93% 30.20 in 5.0 mi NNE 6.9 mph - 0.02 in Rain Rain
11:55 PM 48.9 °F - 46.0 °F 90% 30.20 in 6.0 mi NNE 8.1 mph - 0.03 in Rain Light Rain